Location: Newark
(7.0858°N, 171.3717°E)
Time: 20:29:13
(UTC+00:00)

Vanguard 2 - Pass Details

Date: 30 November 2020
Orbit: 553 x 2937 km, 32.9° (Epoch: 17 January)

Event Time Altitude Azimuth Distance (km) Brightness Sun altitude
Rises 16:01:19 0° 218° (SW) 6,778 12.2 -35.5°
Reaches altitude 10° 16:06:51 10° 209° (SSW) 5,657 11.8 -34.3°
Maximum altitude 16:20:55 33° 152° (SSE) 3,431 11.1 -31.0°
Drops below altitude 10° 16:31:05 10° 92° (E) 4,112 12.1 -28.7°
Sets 16:34:18 0° 83° (E) 4,780 12.5 -27.9°
